Location: Gilevgi
(36.8751°N, 30.0581°E)
Time: 20:17:58
(UTC+00:00)

Cosmos 1417 Rocket - Pass Details

Date: 11 December 2025
Orbit: 951 x 998 km, 83.0° (Epoch: 12 January)

Event Time Altitude Azimuth Distance (km) Brightness Sun altitude
Rises 16:52:28 0° 177° (S) 3,654 7.6 -25.0°
Reaches altitude 10° 16:54:59 10° 175° (S) 2,704 6.9 -25.5°
Maximum altitude 17:01:07 69° 93° (E) 1,029 4.3 -26.7°
Enters shadow 17:01:11 69° 88° (E) 1,029 4.3 -26.7°
